Regional Weather Roundup
Issued by NWS Sterling, VA

Home | Current Version | Previous Version | Text Only | Print | Product List | Glossary Off
Versions: 1 2 3 4 5 6 7 8 9 10 11 12 13 14 15 16 17 18 19 20 21 22 23 24 25 26 27

000
ASUS41 KLWX 231711
RWRLWX

REGIONAL WEATHER ROUNDUP
NATIONAL WEATHER SERVICE BALTIMORE MD/WASHINGTON DC
100 PM EDT SAT SEP 23 2017

Note: "FAIR" indicates few or no clouds below 12,000 feet
with no significant weather and/or obstructions to visibility.
 TC=TEMPERATURE CELSIUS

 * =Non NWS site. Station does not report precipitation (e.g. rain,
    snow, etc.), thunder, or fog.

DCZ001-MDZ009-015-VAZ040>042-051-053>054-231800-
WASHINGTON METRO

CITY           SKY/WX    TMP DP  RH WIND       PRES   REMARKS
WASHINGTON NAT MOSUNNY   85  62  46 N10       30.09F
DULLES         MOSUNNY   82  60  47 N9        30.10F
ANDREWS AFB    SUNNY     82  60  47 N10       30.08F
FT BELVOIR     SUNNY     84  60  44 NW8       30.09S
QUANTICO       SUNNY     82  64  54 E7        30.10S
COLLEGE PARK*  SUNNY     81  61  50 N6        30.09S
LEESBURG*      SUNNY     81  63  54 CALM      30.12S
MANASSAS*      SUNNY     84  61  45 N9        30.10F
GAITHERSBURG*  SUNNY     82  64  54 VRB3      30.12F

$$

MDZ006>007-011-014-231800-
BALTIMORE METRO

CITY           SKY/WX    TMP DP  RH WIND       PRES   REMARKS
BWI AIRPORT    MOSUNNY   84  61  45 NW8       30.08F
MD SCIENCE CTR   N/A     84  62  47 MISG      30.08F
MARTIN STATE   MOSUNNY   84  64  51 NW3       30.09F
ANNAPOLIS      SUNNY     82  65  56 N8        30.08S
FORT MEADE*    SUNNY     81  61  50 W7        30.11F

$$

MDZ012-015-019>023-231800-
MARYLAND EASTERN SHORE

CITY           SKY/WX    TMP DP  RH WIND       PRES   REMARKS
OCEAN CITY     SUNNY     82  69  64 E7        30.05S
SALISBURY      SUNNY     83  67  58 N9        30.04F
CAMBRIDGE*     SUNNY     81  64  57 VRB5      30.06F
EASTON*        MOSUNNY   84  64  51 N6        30.11S

$$

MDZ017>025-231800-
SOUTHERN MARYLAND

CITY           SKY/WX    TMP DP  RH WIND       PRES   REMARKS
PATUXENT RIVER MOSUNNY   82  64  54 N8        30.07S
ST INIGOES     SUNNY     82  67  60 NW9       30.05F
LEONARDTOWN*   SUNNY     79  63  57 NW5       30.09S

$$

MDZ003>005-231800-
NORTH CENTRAL MARYLAND

CITY           SKY/WX    TMP DP  RH WIND       PRES   REMARKS
FREDERICK*     SUNNY     84  57  39 VRB5      30.13F
HAGERSTOWN APT SUNNY     83  58  42 VRB5      30.12F
WESTMINSTER*   SUNNY     81  63  54 N8        30.12F

$$

MDZ501>502-231800-
WESTERN MARYLAND

CITY           SKY/WX    TMP DP  RH WIND       PRES   REMARKS
OAKLAND*       SUNNY     75  45  33 N3        30.21F
CUMBERLAND*    SUNNY     82  52  34 W5        30.17F

$$

VAZ025>031-231800-
SHENANDOAH VALLEY

CITY           SKY/WX    TMP DP  RH WIND       PRES   REMARKS
WINCHESTER*    SUNNY     79  54  41 N3        30.13F
FRONT ROYAL*   SUNNY     79  57  47 NW3       30.12F
LURAY*         SUNNY     82  50  32 NE6       30.13S
NEW MARKET*    SUNNY     83  41  22 N7        30.11F
STAUNTON*      SUNNY     80  50  35 NE10      30.15F
WAYNESBORO*    SUNNY     78  59  52 N7        30.15F

$$

WVZ021-048>050-054>055-231800-
EASTERN WEST VIRGINIA PANHANDLE

CITY           SKY/WX    TMP DP  RH WIND       PRES   REMARKS
MARTINSBURG    SUNNY     80  57  45 VRB5      30.12F
PETERSBURG*    SUNNY     83  60  45 NE5       30.14F

$$

VAZ036>039-050-231800-
CENTRAL FOOTHILLS

CITY           SKY/WX    TMP DP  RH WIND       PRES   REMARKS
CHARLOTTESVILL SUNNY     83  56  39 N8        30.10F
CULPEPER*      SUNNY     83  59  43 N5        30.11F
ORANGE*        SUNNY     81  59  47 N7        30.10F
GORDONSVILLE*  SUNNY     82  59  46 NE8       30.09F
WARRENTON*     SUNNY     85  55  35 NE7       30.10F

$$

VAZ055>057-231800-
NORTH AND CENTRAL PIEDMONT

CITY           SKY/WX    TMP DP  RH WIND       PRES   REMARKS
FREDERICKSBRG* SUNNY     82  64  53 CALM      30.07F
STAFFORD*      SUNNY     82  60  47 N6        30.13F

$$

NCZ024-NYZ072-PAZ021-071-VAZ022-071-231800-
OTHER REGIONAL OBSERVATIONS

CITY           SKY/WX    TMP DP  RH WIND       PRES   REMARKS
NEW YORK CITY  SUNNY     84  55  36 N10       30.07F
PHILADELPHIA   MOSUNNY   85  60  42 N13G18    30.05F
PITTSBURGH     MOSUNNY   84  53  34 VRB3      30.16F
ROANOKE        MOSUNNY   84  58  40 N7        30.14F
RICHMOND       MOSUNNY   83  62  49 N9        30.08S
RALEIGH        MOSUNNY   83  60  45 E10       30.08F

$$

ANZ530>537-231800-
MARINE OBSERVATIONS

STATION/POSITION TIME  TEMP    WIND        PRES
                       AIR SEA DIR/SP/G
                 (UTC) (F)     (DEG/KT/KT) (MB)
THOMAS PT LIGHT  1700   77 76   10/ 10/ 11   N/A
BALT KEY BRIDGE  1648   80      50/  6/  8 1018.4F
COVE POINT       1648   74     360/ 12/ 15 1019.2F
LEWISETTA        1648   77 77  350/  4/  6 1018.1F
SOLOMONS ISLAND  1642   77 76  350/  5/  9 1018.0F
PINEY POINT      1648          310/  9/ 10   N/A

$$





USA.gov is the U.S. government's official web portal to all federal, state and local government web resources and services.